Flag for Spain Weather for the Past 2 Weeks in Santa Cruz de Tenerife, Canary Islands, Spain

Now
57 °F

Broken clouds.


Feels Like: 53 °F
Forecast: 67 / 74 °F
Wind: 18 mph from North

Location: Tenerife / Los Rodeos

Current Time: May 1, 2016 at 6:47:07 PM

Latest Report: May 1, 2016 at 6:00 PM


Visibility: N/A

Pressure: 30.09 "Hg

Humidity: 82%

Dew Point: 52 °F

Location of Santa Cruz de TenerifeLocation

Historic Weather in Santa Cruz de Tenerife — Graph

°F

Santa Cruz de Tenerife Temperature Yesterday

Maximum temperature yesterday: 64 °F (at 12:00 PM)
Minimum temperature yesterday: 55 °F (at 9:30 PM)
Average temperature yesterday: 60 °F

High & Low Weather Summary for the Past Weeks

 TemperatureHumidityPressure
High68 °F (Apr 22, 12:00 PM)100% (Apr 17, 8:00 PM)30.18 "Hg (Apr 17, 8:00 PM)
Low48 °F (Apr 20, 6:30 AM)63% (Apr 27, 12:00 PM)29.92 "Hg (Apr 18, 6:00 AM)
Average59 °F85%30.07 "Hg
* Reported Apr 16 5:00 PM — May 1 5:30 PM, Santa Cruz de Tenerife, Weather by CustomWeather, © 2016

Note: Actual official high and low records may vary slightly from our data, if they occured in-between our weather recording intervals... More about our weather records

Advertising

Santa Cruz de Tenerife Weather History for the Previous 24 Hours

Scroll right to see more
 ConditionsComfort  
Time TempWeatherWind HumidityBarometerVisibility
5:30 PM
Sun, May 1
57 °FBroken clouds.17 mph82%30.09 "HgN/A
5:00 PM57 °FPartly sunny.15 mph88%30.09 "HgN/A
4:30 PM57 °FPartly sunny.12 mph88%30.12 "HgN/A
4:00 PM57 °FLight rain. Partly sunny.9 mph88%30.12 "Hg6 mi
3:30 PM57 °FPartly sunny.9 mph88%30.12 "HgN/A
3:00 PM57 °FLight rain. Partly sunny.9 mph94%30.12 "HgN/A
2:52 PM57 °FLight rain. Partly sunny.9 mph94%30.12 "HgN/A
2:30 PM59 °FBroken clouds.14 mph82%30.15 "HgN/A
2:00 PM57 °FPartly sunny.10 mph94%30.15 "HgN/A
1:30 PM59 °FBroken clouds.9 mph88%30.15 "HgN/A
1:00 PM57 °FLight rain. Broken clouds.13 mph82%30.15 "Hg6 mi
12:53 PM57 °FLight rain. Partly sunny.13 mph94%30.15 "Hg6 mi
12:30 PM61 °FPartly sunny.14 mph68%30.15 "HgN/A
12:00 PM61 °FPartly sunny.13 mph72%30.15 "HgN/A
11:30 AM61 °FScattered clouds.9 mph68%30.15 "HgN/A
11:00 AM61 °FScattered clouds.13 mph68%30.15 "HgN/A
10:30 AM57 °FPartly sunny.12 mph77%30.15 "HgN/A
10:00 AM55 °FBroken clouds.10 mph88%30.15 "HgN/A
9:30 AM55 °FBroken clouds.14 mph88%30.15 "HgN/A
9:00 AM55 °FBroken clouds.18 mph88%30.12 "HgN/A
8:30 AM55 °FBroken clouds.15 mph82%30.12 "HgN/A
8:00 AM55 °FPartly cloudy.13 mph82%30.12 "HgN/A
7:30 AM55 °FPassing clouds.14 mph82%30.12 "HgN/A
7:00 AM55 °FPartly cloudy.12 mph82%30.12 "HgN/A
6:30 AM55 °FPartly cloudy.12 mph82%30.12 "HgN/A
11:00 PM
Sat, Apr 30
55 °FPassing clouds.16 mph88%30.18 "HgN/A
10:30 PM55 °FPassing clouds.18 mph88%30.18 "HgN/A
10:00 PM55 °FPassing clouds.21 mph88%30.15 "HgN/A
9:30 PM55 °FPartly sunny.18 mph94%30.15 "HgN/A
9:00 PM57 °FPartly sunny.20 mph82%30.15 "HgN/A
8:30 PM57 °FPartly sunny.18 mph82%30.12 "HgN/A
8:00 PM57 °FPartly sunny.15 mph82%30.12 "HgN/A
7:30 PM59 °FPartly sunny.13 mph82%30.12 "HgN/A
7:00 PM59 °FPartly sunny.13 mph77%30.12 "HgN/A
6:30 PM59 °FPartly sunny.13 mph82%30.12 "HgN/A
6:00 PM61 °FPartly sunny.10 mph77%30.12 "HgN/A
Weather by CustomWeather, © 2016

See weather overviewHow to use our weather pages